Tracking 30995 objects as of 7-Jul-2025
HD Live streaming from Space Station
objects crossing your sky now

SL-8 DEB

Track SL-8 DEB now!
10-day predictions


NORAD ID: 20434
Int'l Code: 1990-004C
Perigee: 725.6 km
Apogee: 747.1 km
Inclination: 74.0 °
Period: 99.4 minutes
Semi major axis: 7107 km
RCS: 0.0078 m2 (small)
Launch date: January 18, 1990
Source: Commonwealth of Independent States (former USSR) (CIS)
Launch site: PLESETSK MISSILE AND SPACE COMPLEX (PKMTR)

Note: This is SATELLITE DEBRIS
Your satellite tracking list
INMARSAT 4-F2
Track 1 satellite(s)




NASA's NSSDC Master Catalog

Two Line Element Set (TLE):
1 20434U 90004C   25187.73803101  .00000868  00000-0  23611-3 0  9990
2 20434  74.0422 282.4785 0015124 276.5889 210.9595 14.48922277860403
Source of the keplerian elements: AFSPC